EDT,Max TemperatureF,Mean TemperatureF,Min TemperatureF,Max Dew PointF,MeanDew PointF,Min DewpointF,Max Humidity, Mean Humidity, Min Humidity, Max Sea Level PressureIn, Mean Sea Level PressureIn, Min Sea Level PressureIn, Max VisibilityMiles, Mean VisibilityMiles, Min VisibilityMiles, Max Wind SpeedMPH, Mean Wind SpeedMPH, Max Gust SpeedMPH,PrecipitationIn, CloudCover, Events, WindDirDegrees
2013-4-1,73,64,55,58,48,32,100,70,24,29.96,29.87,29.83,10,8,5,15,6,22,0.02,5,Rain,297
2013-4-2,66,54,41,39,34,23,79,49,26,30.16,30.07,29.98,10,10,10,13,3,17,0.00,1,Rain,34
2013-4-3,61,54,46,25,21,15,34,28,23,30.27,30.21,30.12,10,10,9,12,8,20,0.00,3,Rain,44
2013-4-4,52,44,37,39,35,24,100,81,36,30.26,30.14,29.99,10,5,1,15,6,22,0.90,8,Rain,39
2013-4-5,64,50,37,46,41,36,97,79,45,30.05,29.98,29.92,10,9,4,14,8,,0.00,5,,9
2013-4-6,70,53,37,41,36,32,97,55,26,30.22,30.16,30.06,10,10,9,9,4,,0.00,0,,91
2013-4-7,72,55,39,51,45,38,97,68,42,30.27,30.19,30.11,10,8,5,14,5,20,0.00,3,,179
2013-4-8,79,64,50,56,52,49,97,65,39,30.18,30.11,30.06,10,9,5,18,7,23,0.00,1,,204
2013-4-9,84,66,50,59,55,50,100,67,38,30.20,30.13,30.08,10,9,3,14,6,18,0.00,2,,215
2013-4-10,84,70,57,60,57,56,100,67,38,30.11,30.04,29.95,10,10,6,15,8,20,0.00,1,,207
2013-4-11,82,69,57,68,61,56,100,77,50,30.00,29.90,29.75,10,9,1,14,8,23,0.02,6,Rain,200
2013-4-12,81,72,57,67,60,41,100,77,27,29.83,29.71,29.64,10,8,2,22,12,29,0.34,6,Rain,217
2013-4-13,75,59,43,47,40,33,86,54,22,30.02,29.94,29.84,10,10,10,7,2,,0.00,0,,277
2013-4-14,77,60,46,55,46,42,93,60,31,30.08,30.03,29.98,10,10,4,14,3,21,0.00,2,Rain,160
2013-4-15,73,65,59,60,58,53,90,81,61,30.21,30.06,29.97,10,10,8,12,3,,0.00,8,Rain,28
2013-4-16,79,68,57,61,58,56,100,81,46,30.26,30.20,30.17,10,8,4,6,2,,0.00,4,,25
2013-4-17,84,70,55,62,59,56,100,73,47,30.24,30.17,30.09,10,9,6,12,3,16,0.00,2,,254
2013-4-18,82,70,62,63,61,57,90,74,48,30.18,30.09,29.99,10,10,7,12,5,16,0.00,5,,177
2013-4-19,82,67,53,66,62,51,96,85,58,29.97,29.86,29.76,10,9,2,20,11,36,0.25,7,Rain,207
2013-4-20,64,54,43,50,38,29,93,60,28,30.27,30.10,29.91,10,10,10,15,6,21,0.00,1,,346
2013-4-21,64,52,41,40,38,35,96,61,41,30.43,30.37,30.28,10,10,8,12,4,21,0.00,2,,66
2013-4-22,64,53,43,39,33,27,80,50,26,30.42,30.33,30.22,10,10,10,15,6,23,0.00,0,,47
2013-4-23,70,58,48,52,46,38,86,66,49,30.27,30.20,30.11,10,10,10,9,4,,0.00,4,,56
2013-4-24,75,62,48,58,54,48,100,81,48,30.16,30.10,30.01,10,6,1,16,8,26,0.00,4,,220
2013-4-25,71,60,48,59,47,34,90,64,27,30.27,30.17,30.04,10,10,8,12,6,20,0.00,4,,3
2013-4-26,73,59,46,48,38,31,80,50,25,30.43,30.35,30.29,10,10,6,8,5,17,0.00,0,,16
2013-4-27,66,60,55,58,53,45,100,84,58,30.35,30.32,30.24,10,6,2,7,2,,0.48,8,Rain,226
2013-4-28,61,58,54,60,56,53,100,98,94,30.24,30.13,30.05,8,3,0,13,3,21,2.02,8,Fog-Rain,50
2013-4-29,72,64,55,62,59,56,100,91,66,30.06,30.02,29.94,10,7,0,7,3,,0.25,5,Fog-Rain,229
2013-4-30,73,64,55,63,59,55,100,88,57,30.16,30.06,29.98,10,6,0,12,2,18,0.00,4,Fog,59